This demonstration page uses our WeatherBlox Daily Observations layout. Learn more.

Left ArrowRight Arrow

47.50024, -111.30081

Hourly Observations for May 8, 2019

Temp ( °F °C ) Dew Point ( °F °C ) Humidity (%) Winds ( mph kmh ) Pressure ( in mb ) Visibility ( mi km ) Precip ( " mm )
12:53 am 00:53 Mostly Cloudy 43 6.1 35 1.7 74 74 NE 6 9 30.18 1022 10 16 0.00 0.00
1:53 am 01:53 Cloudy 42 5.6 37 2.8 82 82 N 8 13 30.18 1022 10 16 0.00 0.00
2:53 am 02:53 Cloudy 43 6.1 37 2.8 80 80 NE 7 11 30.17 1022 10 16 0.00 0.00
3:53 am 03:53 Cloudy 43 6.1 37 2.8 80 80 N 6 9 30.17 1022 10 16 0.00 0.00
4:53 am 04:53 Cloudy 41 5 37 2.8 86 86 N 5 7 30.20 1023 10 16 0.00 0.00
5:53 am 05:53 Cloudy 41 5 36 2.2 82 82 NE 8 13 30.21 1023 10 16 0.00 0.00
6:53 am 06:53 Cloudy with Light Rain 41 5 37 2.8 86 86 Calm 30.24 1024 10 16 0.00 0.03
7:03 am 07:03 Cloudy with Rain 40 4.4 37 2.8 89 89 Calm 30.26 1025 3 4 0.01 0.25
7:08 am 07:08 Cloudy with Light Rain 40 4.4 37 2.8 89 89 N 3 6 30.26 1025 3 5 0.03 0.76
7:53 am 07:53 Mostly Cloudy 42 5.6 40 4.4 92 92 NNW 3 6 30.26 1025 10 16 0.04 1.02
8:53 am 08:53 Cloudy 44 6.7 39 3.9 83 83 NNW 6 9 30.27 1025 10 16 0.00 0.00
9:53 am 09:53 Cloudy with Light Rain 42 5.6 38 3.3 85 85 N 7 11 30.29 1026 10 16 0.00 0.03
10:53 am 10:53 Cloudy 45 7.2 38 3.3 77 77 NNE 6 9 30.29 1026 10 16 0.00 0.03
11:53 am 11:53 Cloudy 47 8.3 36 2.2 66 66 VRB 3 6 30.28 1026 10 16 0.00 0.00
12:53 pm 12:53 Cloudy 52 11.1 38 3.3 59 59 VRB 3 6 30.26 1025 10 16 0.00 0.00
1:53 pm 13:53 Cloudy 52 11.1 33 0.6 49 49 ENE 9 15 30.25 1024 10 16 0.00 0.00
2:53 pm 14:53 Cloudy 52 11.1 34 1.1 50 50 NNE 10 17 30.24 1024 10 16 0.00 0.00
3:53 pm 15:53 Cloudy 51 10.6 35 1.7 54 54 NE 10 17 30.24 1024 10 16 0.00 0.03
4:53 pm 16:53 Mostly Cloudy 54 12.2 35 1.7 49 49 ENE 9 15 30.22 1024 10 16 0.00 0.03
5:53 pm 17:53 Cloudy 50 10 39 3.9 66 66 E 12 19 30.24 1024 10 16 0.01 0.25
6:53 pm 18:53 Mostly Cloudy 49 9.4 34 1.1 56 56 E 10 17 30.24 1024 10 16 0.00 0.00
7:53 pm 19:53 Cloudy with Light Rain 46 7.8 37 2.8 71 71 SSW 6 9 30.25 1024 10 16 0.00 0.03
8:53 pm 20:53 Cloudy with Light Rain 43 6.1 39 3.9 86 86 WNW 12 19 30.27 1025 10 16 0.00 0.03
9:53 pm 21:53 Cloudy with Light Rain 44 6.7 38 3.3 79 79 WNW 7 11 30.29 1026 10 16 0.01 0.25
10:53 pm 22:53 Cloudy 41 5 39 3.9 93 93 SSE 6 9 30.29 1026 10 16 0.00 0.03
11:53 pm 23:53 Cloudy 41 5 40 4.4 96 96 W 7 11 30.29 1026 10 16 0.00 0.00

Powered by AerisWeather